Weather History for Dayton Wright, OH

Change the Weather History Date:

Monday, April 29, 2013

  Actual Average (KFFO) Record (KFFO)
Temperature  
Mean Temperature 58 °F -  
Max Temperature 62 °F 66 °F 77 °F (2004)
Min Temperature 53 °F 44 °F 35 °F (1997)
Degree Days  
Heating Degree Days 8    
Growing Degree Days 8 (Base 50)    
Moisture  
Dew Point 53 °F    
Average Humidity 87    
Maximum Humidity 100    
Minimum Humidity 67    
Precipitation  
Precipitation 0.01 in - - ()
Sea Level Pressure  
Sea Level Pressure 29.95 in    
Wind  
Wind Speed 5 mph (SW)    
Max Wind Speed 9 mph    
Max Gust Speed -    
Visibility 8 miles    
Events      
Averages and records for this station are not official NWS values.
T = Trace of Precipitation, MM = Missing Value Source: NWS Daily Summary

Daily Weather History Graph

Daily Weather History Graph

Search for Another Location

Airport:

Trip Planner

Search our weather history database for the weather conditions in past years. The results will help you decide how hot, cold, wet, or windy it might be!

Date:

Astronomy

Apr. 29, 2013 Rise Set
Actual Time 6:39 AM EDT 8:29 PM EDT
Civil Twilight 6:11 AM EDT 8:58 PM EDT
Nautical Twilight 5:35 AM EDT 9:33 PM EDT
Astronomical Twilight 4:58 AM EDT 10:11 PM EDT
Moon No Moon Rise 10:00 AM EDT (4/29)
Length of Visible Light 14h 47m
Length of Day
13h 49m
Waning Gibbous, 80% of the Moon is Illuminated
Apr 29
Waning Gibbous
May 2
Last Quarter
May 9
New
May 18
First Quarter
May 25
Full

Hourly Weather History & Observations

Time (EDT) Temp. Dew Point Humidity Pressure Visibility Wind Dir Wind Speed Gust Speed Precip Events Conditions
12:25 AM 55.4 °F 51.8 °F 88% 29.88 in 10.0 mi SW 4.6 mph - N/A   Mostly Cloudy
12:53 AM 55.9 °F 52.0 °F 87% 29.88 in 10.0 mi SSW 4.6 mph - N/A   Overcast
1:53 AM 55.9 °F 53.1 °F 90% 29.89 in 10.0 mi SW 5.8 mph - N/A   Overcast
2:17 AM 55.4 °F 53.6 °F 94% 29.90 in 10.0 mi SSW 5.8 mph - N/A   Overcast
2:53 AM 55.0 °F 52.0 °F 89% 29.89 in 10.0 mi SW 4.6 mph - N/A   Overcast
3:53 AM 55.0 °F 53.1 °F 93% 29.90 in 10.0 mi SW 4.6 mph - N/A   Overcast
4:15 AM 55.4 °F 53.6 °F 94% 29.91 in 7.0 mi WSW 4.6 mph - 0.00 in   Overcast
4:53 AM 54.0 °F 54.0 °F 100% 29.91 in 4.0 mi SSW 5.8 mph - 0.01 in   Overcast
5:43 AM 53.6 °F 53.6 °F 100% 29.92 in 2.5 mi SSW 3.5 mph - N/A   Overcast
5:53 AM 54.0 °F 54.0 °F 100% 29.92 in 3.0 mi SSW 4.6 mph - N/A   Overcast
6:53 AM 55.0 °F 54.0 °F 96% 29.94 in 5.0 mi SW 4.6 mph - N/A   Overcast
7:53 AM 55.0 °F 54.0 °F 96% 29.96 in 4.0 mi SW 4.6 mph - N/A   Overcast
8:53 AM 55.0 °F 55.0 °F 100% 29.97 in 4.0 mi WSW 5.8 mph - N/A   Overcast
9:37 AM 55.4 °F 55.4 °F 100% 29.98 in 5.0 mi WSW 5.8 mph - N/A   Overcast
9:53 AM 55.0 °F 55.0 °F 100% 29.98 in 5.0 mi West 4.6 mph - N/A   Overcast
10:53 AM 57.0 °F 55.0 °F 93% 29.98 in 6.0 mi West 4.6 mph - N/A   Overcast
11:20 AM 57.2 °F 53.6 °F 88% 29.99 in 8.0 mi West 4.6 mph - N/A   Overcast
11:36 AM 57.2 °F 53.6 °F 88% 29.99 in 9.0 mi SW 6.9 mph - N/A   Overcast
11:44 AM 57.2 °F 55.4 °F 94% 29.99 in 9.0 mi SSW 8.1 mph - N/A   Overcast
11:53 AM 57.9 °F 54.0 °F 87% 29.99 in 9.0 mi SW 6.9 mph - N/A   Overcast
12:37 PM 59.0 °F 51.8 °F 77% 29.99 in 10.0 mi WSW 8.1 mph - N/A   Overcast
12:53 PM 59.0 °F 52.0 °F 78% 29.99 in 10.0 mi SW 6.9 mph - N/A   Overcast
1:53 PM 60.1 °F 52.0 °F 75% 29.98 in 10.0 mi Calm Calm - N/A   Overcast
2:13 PM 60.8 °F 53.6 °F 77% 29.98 in 10.0 mi SW 3.5 mph - N/A   Overcast
2:37 PM 60.8 °F 51.8 °F 72% 29.98 in 10.0 mi WSW 4.6 mph - N/A   Overcast
2:53 PM 62.1 °F 52.0 °F 70% 29.97 in 10.0 mi Calm Calm - N/A   Overcast
3:53 PM 61.0 °F 54.0 °F 78% 29.97 in 10.0 mi SW 9.2 mph - N/A   Overcast
4:53 PM 61.0 °F 52.0 °F 72% 29.96 in 10.0 mi WSW 5.8 mph - N/A   Overcast
5:53 PM 62.1 °F 51.1 °F 67% 29.96 in 10.0 mi SSW 4.6 mph - N/A   Overcast
6:53 PM 62.1 °F 52.0 °F 70% 29.96 in 10.0 mi SSW 5.8 mph - N/A   Overcast
7:53 PM 61.0 °F 53.1 °F 75% 29.96 in 10.0 mi South 5.8 mph - N/A   Overcast
8:53 PM 57.0 °F 52.0 °F 83% 29.96 in 10.0 mi SSE 4.6 mph - N/A   Clear
9:53 PM 55.9 °F 53.1 °F 90% 29.98 in 10.0 mi SSE 3.5 mph - N/A   Clear
10:53 PM 55.9 °F 52.0 °F 87% 29.96 in 9.0 mi SSE 8.1 mph - N/A   Clear
11:53 PM 54.0 °F 52.0 °F 93% 29.98 in 8.0 mi South 3.5 mph - N/A   Clear